Location: Betra
(48.4113°N, 8.6634°E)
Time: 15:52:32
(UTC+00:00)

Tiangong - Visible Passes

Search period start: 23 July 2024 00:00
Search period end: 02 August 2024 00:00
Orbit: 388 x 393 km, 41.5° (Epoch: 23 July)

Date Brightness Start Highest point End Pass type
(mag) Time Alt. Az. Time Alt. Az. Time Alt. Az.
26 Jul 0.1 20:39:57 10° SSW 20:40:40 13° S 20:40:40 13° S visible
27 Jul 0.3 21:17:53 10° SW 21:18:25 13° SW 21:18:25 13° SW visible
28 Jul -0.6 20:20:15 10° SW 20:22:37 19° SSE 20:23:28 17° SE visible
29 Jul -0.6 20:58:30 10° SW 21:00:35 22° SSW 21:00:35 22° SSW visible
30 Jul -0.7 20:00:38 10° SW 20:03:12 22° S 20:05:11 13° SE visible
30 Jul 0.5 21:37:11 10° WSW 21:37:29 12° WSW 21:37:29 12° WSW visible
31 Jul -0.7 20:39:03 10° WSW 20:41:37 22° S 20:41:56 22° S visible
01 Aug -0.7 19:40:58 10° SW 19:43:35 23° S 19:46:12 10° SE visible
01 Aug 0.3 21:17:55 10° WSW 21:18:36 13° SW 21:18:36 13° SW visible
